Flag for Romania Weather past 2 weeks in Iasi, Romania

Now
37 °F

Clear.


Feels Like: 32 °F
Forecast: 31 / 41 °F
Wind: 7 mph from Southeast

Location: Iasi Airport

Current Time: Dec 19, 2014 at 6:16:18 PM

Latest Report: Dec 19, 2014 at 5:00 PM


Visibility: 10 mi

Pressure: 30.01 "Hg

Humidity: 100%

Dew point: 37 °F

Location of IasiLocation

Historic Weather in Iasi — Graph

°F

Iasi temperature yesterday

Maximum temperature yesterday: 37 °F (at 9:30 AM)
Minimum temperature yesterday: 34 °F (at 6:30 PM)
Average temperature yesterday: 36 °F

Past Weeks' High & Low Weather Summary

 TemperatureHumidityPressure
High46 °F (Dec 12, 1:30 PM)100% (Dec 6, 10:00 PM)30.39 "Hg (Dec 6, 10:00 PM)
Low27 °F (Dec 13, 7:30 AM)57% (Dec 12, 2:00 PM)29.80 "Hg (Dec 17, 1:00 PM)
Average32 °F96%30.12 "Hg
* Reported Dec 4 5:00 PM — Dec 19 5:00 PM, Iasi, Weather by CustomWeather, © 2014

Note: Actual official high and low records may vary slightly from our data, if they occured in-between our weather recording intervals... More about our weather records

Advertising

Iasi weather history for previous 24 hours

 ConditionsComfort  
Time TempWeatherWind HumidityBarometerVisibility
5:00 PM
Dec 19
37 °FClear.7 mph100%30.01 "Hg10 mi
4:30 PM37 °FClear.9 mph100%30.01 "Hg10 mi
4:00 PM37 °FSunny.9 mph100%30.01 "Hg10 mi
3:30 PM39 °FSunny.9 mph93%30.01 "Hg10 mi
3:00 PM39 °FSunny.9 mph93%30.01 "Hg10 mi
2:30 PM39 °FSunny.9 mph87%30.01 "Hg10 mi
2:00 PM39 °FSunny.12 mph93%30.01 "Hg10 mi
1:30 PM39 °FSunny.12 mph87%30.01 "Hg10 mi
1:00 PM39 °FSunny.9 mph87%30.01 "Hg10 mi
12:30 PM37 °FSunny.9 mph100%30.04 "Hg10 mi
12:00 PM36 °FSunny.9 mph100%30.04 "Hg10 mi
11:30 AM34 °FPassing clouds.9 mph100%30.04 "HgN/A
10:30 AM30 °FIce fog.9 mph100%30.04 "Hg2 mi
10:00 AM30 °FIce fog.9 mph100%30.04 "Hg3 mi
9:30 AM30 °FIce fog.9 mph100%30.04 "Hg2 mi
9:00 AM30 °FIce fog.12 mph100%30.04 "Hg1 mi
8:30 AM28 °FIce fog.9 mph100%30.04 "Hg0 mi
8:00 AM30 °FIce fog.9 mph100%30.07 "Hg0 mi
7:30 AM30 °FIce fog.12 mph100%30.04 "Hg0 mi
7:00 AM30 °FIce fog.12 mph100%30.07 "Hg0 mi
6:30 AM30 °FIce fog.12 mph100%30.04 "Hg0 mi
6:00 AM30 °FIce fog.12 mph100%30.04 "Hg0 mi
5:30 AM30 °FIce fog.12 mph100%30.07 "Hg0 mi
5:00 AM30 °FIce fog.9 mph100%30.07 "Hg0 mi
4:00 AM30 °FIce fog.9 mph100%30.07 "Hg0 mi
3:00 AM30 °FIce fog.7 mph100%30.07 "Hg0 mi
2:00 AM32 °FIce fog.7 mph100%30.07 "Hg0 mi
1:00 AM32 °FFog.9 mph100%30.09 "Hg0 mi
12:00 AM34 °FFog.5 mph100%30.07 "Hg1 mi
11:00 PM
Dec 18
34 °FFog.5 mph100%30.07 "Hg1 mi
10:00 PM34 °FFog.2 mph100%30.07 "Hg2 mi
9:00 PM34 °FFog.2 mph100%30.07 "Hg2 mi
8:30 PM34 °FFog.No wind100%30.07 "Hg2 mi
8:00 PM34 °FFog.2 mph100%30.07 "Hg2 mi
7:30 PM34 °FFog.No wind100%30.04 "Hg2 mi
7:00 PM34 °FFog.2 mph100%30.04 "Hg2 mi
6:30 PM34 °FFog.2 mph100%30.04 "Hg2 mi
6:00 PM36 °FFog.2 mph93%30.04 "Hg2 mi
Weather by CustomWeather, © 2014

See weather overviewHow to use our weather pages